Weather History for Panama City, FL

Change the Weather History Date:

Sunday, November 24, 2013

  Actual Average Record
Temperature  
Mean Temperature 52 °F -  
Max Temperature 59 °F - 77 °F (2010)
Min Temperature 45 °F - 40 °F (2012)
Degree Days  
Heating Degree Days 13    
Cooling Degree Days 0    
Growing Degree Days 2 (Base 50)    
Moisture  
Dew Point 33 °F    
Average Humidity 54    
Maximum Humidity 72    
Minimum Humidity 36    
Precipitation  
Precipitation 0.00 in - 0.00 in (2014)
Month to date precipitation  
Year to date precipitation  
Sea Level Pressure  
Sea Level Pressure 30.30 in    
Wind  
Wind Speed 12 mph (North)    
Max Wind Speed 21 mph    
Max Gust Speed 30 mph    
Visibility 10 miles    
Events      
T = Trace of Precipitation, MM = Missing Value Source: NWS Daily Summary

Daily Weather History Graph

Daily Weather History Graph

Search for Another Location

Airport:

Trip Planner

Search our weather history database for the weather conditions in past years. The results will help you decide how hot, cold, wet, or windy it might be!

Date:

Astronomy

Nov. 24, 2013 Rise Set
Actual Time 7:16 AM EST 5:43 PM EST
Civil Twilight 6:50 AM EST 6:08 PM EST
Nautical Twilight 6:21 AM EST 6:38 PM EST
Astronomical Twilight 5:52 AM EST 7:07 PM EST
Moon 11:54 PM EST (11/24) 12:15 PM EST (11/24)
Length of Visible Light 11h 18m
Length of Day
10h 26m
Waning Gibbous, 61% of the Moon is Illuminated
Nov 24
Waning Gibbous
Nov 25
Last Quarter
Dec 2
New
Dec 9
First Quarter
Dec 17
Full

Hourly Weather History & Observations

Time (EST) Temp. Windchill Dew Point Humidity Pressure Visibility Wind Dir Wind Speed Gust Speed Precip Events Conditions
12:53 AM 55.9 °F - 46.9 °F 72% 30.21 in 10.0 mi NNW 10.4 mph 18.4 mph N/A   Scattered Clouds
1:53 AM 55.0 °F - 44.1 °F 67% 30.22 in 10.0 mi NNW 9.2 mph 20.7 mph N/A   Clear
2:53 AM 54.0 °F - 37.9 °F 55% 30.23 in 10.0 mi North 11.5 mph - N/A   Mostly Cloudy
3:53 AM 53.1 °F - 37.0 °F 55% 30.25 in 10.0 mi NNW 11.5 mph - N/A   Overcast
4:53 AM 51.1 °F - 34.0 °F 52% 30.27 in 10.0 mi North 12.7 mph - N/A   Overcast
5:53 AM 48.9 °F - 32.0 °F 52% 30.27 in 10.0 mi North 17.3 mph 25.3 mph N/A   Overcast
6:53 AM 46.9 °F - 30.9 °F 54% 30.28 in 10.0 mi North 16.1 mph 23.0 mph N/A   Clear
7:53 AM 46.0 °F 39.3 °F 30.9 °F 56% 30.30 in 10.0 mi North 16.1 mph 21.9 mph N/A   Clear
8:53 AM 46.0 °F 38.8 °F 26.1 °F 46% 30.33 in 10.0 mi North 18.4 mph 25.3 mph N/A   Clear
9:53 AM 48.9 °F - 25.0 °F 39% 30.35 in 10.0 mi NNE 19.6 mph 26.5 mph N/A   Clear
10:53 AM 51.1 °F - 27.0 °F 39% 30.35 in 10.0 mi North 16.1 mph 25.3 mph N/A   Clear
11:53 AM 54.0 °F - 28.9 °F 38% 30.32 in 10.0 mi North 17.3 mph 24.2 mph N/A   Clear
12:53 PM 55.9 °F - 30.0 °F 37% 30.30 in 10.0 mi NNE 16.1 mph 21.9 mph N/A   Clear
1:53 PM 57.0 °F - 30.0 °F 36% 30.28 in 10.0 mi NNE 16.1 mph 25.3 mph N/A   Clear
2:53 PM 57.9 °F - 30.9 °F 36% 30.28 in 10.0 mi NNE 13.8 mph - N/A   Clear
3:53 PM 57.9 °F - 33.1 °F 39% 30.27 in 10.0 mi NNE 10.4 mph 23.0 mph N/A   Clear
4:53 PM 55.9 °F - 33.1 °F 42% 30.30 in 10.0 mi NNE 11.5 mph - N/A   Clear
5:53 PM 51.1 °F - 36.0 °F 56% 30.32 in 10.0 mi North 5.8 mph - N/A   Clear
6:53 PM 48.0 °F - 37.0 °F 66% 30.34 in 10.0 mi North 3.5 mph - N/A   Clear
7:53 PM 46.9 °F - 36.0 °F 66% 30.35 in 10.0 mi North 6.9 mph - N/A   Clear
8:53 PM 48.9 °F - 33.1 °F 54% 30.36 in 10.0 mi North 8.1 mph - N/A   Clear
9:53 PM 48.0 °F - 32.0 °F 54% 30.36 in 10.0 mi NNE 3.5 mph - N/A   Clear
10:53 PM 46.9 °F - 30.9 °F 54% 30.36 in 10.0 mi NE 8.1 mph - N/A   Clear
11:53 PM 46.0 °F 41.4 °F 30.9 °F 56% 30.36 in 10.0 mi NE 9.2 mph - N/A   Clear